Hourly Data Report for May 18, 2021

TORONTO CITY
ONTARIO
Current Station Operator: ECCC - MSC

43°40'00.000" N
79°24'00.000" W
112.50 m
6158355
71508
XTO

Download Data

Hourly Data (May 2021)
Hourly Data Report for May 18, 2021
TIME
LST
Temp Definition
°C
Dew Point Definition
°C
Rel Hum Definition
%
Precip. Amount Definition
mm

Wind Dir Definition
10's deg

Wind Spd Definition
km/h
Visibility Definition
km
Stn Press Definition
kPa
Hmdx Definition


Wind Chill Definition


Weather Definition


00:00 15.8 6.8 55 0.0       101.10     LegendNANA
01:00 14.6 5.6 55 0.0       101.10     LegendNANA
02:00 13.6 6.9 64 0.0       101.12     LegendNANA
03:00 13.5 7.2 66 0.0       101.13     LegendNANA
04:00 13.5 7.4 67 0.0       101.15     LegendNANA
05:00 13.9 7.6 66 0.0       101.22     LegendNANA
06:00 14.9 7.5 62 0.0       101.28     LegendNANA
07:00 17.5 8.5 55 0.0       101.35     LegendNANA
08:00 19.0 9.0 52 0.0       101.37     LegendNANA
09:00 19.8 8.6 49 0.0       101.40     LegendNANA
10:00 20.7 6.0 38 0.0       101.38     LegendNANA
11:00 22.3 6.4 36 0.0       101.35     LegendNANA
12:00 23.2 6.6 34 0.0       101.31     LegendNANA
13:00 25.3 7.6 32 0.0       101.27 26   LegendNANA
14:00 26.1 8.2 32 0.0       101.20 27   LegendNANA
15:00 25.2 6.3 30 0.0       101.14 25   LegendNANA
16:00 25.0 7.3 32 0.0       101.08 25   LegendNANA
17:00 24.0 8.3 37 0.0       101.07 25   LegendNANA
18:00 23.3 7.4 36 0.0       101.05     LegendNANA
19:00 21.9 7.3 39 0.0       101.08     LegendNANA
20:00 19.9 7.9 46 0.0       101.09     LegendNANA
21:00 19.2 9.0 51 0.0       101.15     LegendNANA
22:00 20.2 6.9 42 0.0       101.19     LegendNANA
23:00 18.9 7.8 48 0.0       101.19     LegendNANA

Notes on Data Quality.

Legend

  • E = Estimated
  • M = Missing
  • NA = Not Available*
  • [empty] = Indicates an unobserved value
Date modified: